Corsicana, TX

6:29 AM CDT on August 18, 2017 (GMT -0500)
Campbell-Corsicana Municipal

Weather History for KCRS - September, 2013

Change the Weather History Date:

Tuesday, September 3, 2013

  Actual Average (KTYR) Record (KTYR)
Temperature  
Mean Temperature 88 °F -  
Max Temperature 102 °F 89 °F 109 °F (2000)
Min Temperature 75 °F 69 °F 54 °F (1955)
Cooling Degree Days 24    
Growing Degree Days 38 (Base 50)    
Moisture  
Dew Point 67 °F    
Average Humidity 53    
Maximum Humidity 82    
Minimum Humidity 26    
Precipitation  
Precipitation 0.00 in - - ()
Sea Level Pressure  
Sea Level Pressure 29.92 in    
Wind  
Wind Speed 4 mph (NE)    
Max Wind Speed 10 mph    
Max Gust Speed 18 mph    
Visibility 10 miles    
Events      
Averages and records for this station are not official NWS values.
T = Trace of Precipitation, MM = Missing Value Source: NWS Daily Summary

Daily Weather History Graph

Daily Weather History Graph

Search for Another Location

Airport or City:

Trip Planner

Search our weather history database for the weather conditions in past years. The results will help you decide how hot, cold, wet, or windy it might be!

Date:

Astronomy

Sep. 03, 2013 Rise Set
Actual Time 7:02 AM CDT 7:46 PM CDT
Civil Twilight 6:37 AM CDT 8:11 PM CDT
Nautical Twilight 6:08 AM CDT 8:40 PM CDT
Astronomical Twilight 5:38 AM CDT 9:10 PM CDT
Moon 5:20 AM CDT (9/3) 6:33 PM CDT (9/3)
Length of Visible Light 13h 34m
Length of Day
12h 44m
Waning Crescent, 3% of the Moon is Illuminated
Sep 3
Waning Crescent
Sep 5
New
Sep 12
First Quarter
Sep 19
Full
Sep 26
Last Quarter

Hourly Weather History & Observations

Time (CDT) Temp. Heat Index Dew Point Humidity Pressure Visibility Wind Dir Wind Speed Gust Speed Precip Events Conditions
12:53 AM 82.9 °F 86.5 °F 69.1 °F 63% 29.92 in 10.0 mi SE 5.8 mph - N/A   Clear
1:53 AM 81.0 °F 84.9 °F 71.1 °F 72% 29.92 in 10.0 mi SSE 3.5 mph - N/A   Clear
2:53 AM 78.1 °F - 70.0 °F 76% 29.91 in 10.0 mi Calm Calm - N/A   Clear
3:53 AM 77.0 °F - 70.0 °F 79% 29.91 in 10.0 mi NNE 4.6 mph - N/A   Clear
4:53 AM 75.9 °F - 69.1 °F 79% 29.93 in 10.0 mi North 3.5 mph - N/A   Clear
5:53 AM 77.0 °F - 69.1 °F 76% 29.93 in 10.0 mi NE 3.5 mph - N/A   Clear
6:53 AM 75.0 °F - 69.1 °F 82% 29.94 in 10.0 mi Calm Calm - N/A   Clear
7:53 AM 75.9 °F - 70.0 °F 82% 29.96 in 8.0 mi Calm Calm - N/A   Clear
8:53 AM 82.9 °F 87.5 °F 71.1 °F 67% 29.96 in 10.0 mi NNE 3.5 mph - N/A   Clear
9:53 AM 88.0 °F 93.8 °F 71.1 °F 57% 29.97 in 10.0 mi Variable 3.5 mph - N/A   Clear
10:53 AM 91.9 °F 97.4 °F 70.0 °F 48% 29.98 in 10.0 mi Calm Calm - N/A   Clear
11:53 AM 97.0 °F 100.4 °F 66.0 °F 36% 29.97 in 10.0 mi Variable 5.8 mph - N/A   Clear
12:53 PM 98.1 °F 100.7 °F 64.0 °F 33% 29.95 in 10.0 mi Variable 6.9 mph - N/A   Scattered Clouds
1:53 PM 99.0 °F 101.7 °F 64.0 °F 32% 29.94 in 10.0 mi North 6.9 mph - N/A   Mostly Cloudy
2:53 PM 100.9 °F 104.0 °F 64.0 °F 30% 29.90 in 10.0 mi ENE 6.9 mph - N/A   Scattered Clouds
3:53 PM 102.0 °F 104.6 °F 63.0 °F 28% 29.87 in 10.0 mi North 10.4 mph - N/A   Mostly Cloudy
4:53 PM 102.0 °F 103.9 °F 62.1 °F 27% 29.85 in 10.0 mi North 9.2 mph - N/A   Clear
5:53 PM 102.0 °F 103.3 °F 61.0 °F 26% 29.85 in 10.0 mi NE 5.8 mph - N/A   Clear
6:53 PM 99.0 °F 98.6 °F 59.0 °F 26% 29.86 in 10.0 mi North 4.6 mph - N/A   Clear
7:53 PM 93.0 °F 92.7 °F 60.1 °F 33% 29.88 in 10.0 mi North 4.6 mph - N/A   Clear
8:53 PM 90.0 °F 92.4 °F 66.0 °F 45% 29.90 in 10.0 mi SSE 9.2 mph 18.4 mph N/A   Partly Cloudy
9:53 PM 84.9 °F 87.6 °F 66.9 °F 55% 29.92 in 10.0 mi South 4.6 mph - N/A   Clear
10:53 PM 82.0 °F 84.9 °F 68.0 °F 62% 29.93 in 10.0 mi South 5.8 mph - N/A   Clear
11:53 PM 81.0 °F 83.8 °F 68.0 °F 65% 29.94 in 10.0 mi SSE 4.6 mph - N/A   Clear